ASA553 KSEA-KDFW

Flight info

Callsign ASA553
Flight time 3h 20m
Altitude 33000
Route SUMMA2 SUMMA J54 BKE HLE KD60S KD45W PNH MDANO VKTRY2
Aircraft B739/M-SDE2E3FGHIRWXY/L

Departure

Time 2026-05-04 01:31
Airport Seattle–Tacoma International Airport (KSEA)

Arrival

Time 2026-05-04 04:51
Airport Dallas Fort Worth International Airport (KDFW)
Time Latitude Longitude Altitude Speed Heading
2026-05-04 01:05 47.44909 -122.30205 408 ft 0 kts 220°
2026-05-04 01:17 47.44915 -122.30197 408 ft 3 kts 219°
2026-05-04 01:17 47.44931 -122.30179 404 ft 3 kts 214°
2026-05-04 01:17 47.44949 -122.30163 407 ft 3 kts 198°
2026-05-04 01:17 47.44966 -122.30159 407 ft 3 kts 155°
2026-05-04 01:18 47.44974 -122.30165 409 ft 1 kts 130°
2026-05-04 01:23 47.44973 -122.30164 409 ft 1 kts 130°
2026-05-04 01:23 47.44949 -122.30123 407 ft 8 kts 130°
2026-05-04 01:24 47.44900 -122.30041 408 ft 13 kts 136°
2026-05-04 01:24 47.44820 -122.29987 407 ft 10 kts 178°
2026-05-04 01:24 47.44752 -122.30035 407 ft 12 kts 220°
2026-05-04 01:24 47.44701 -122.30138 406 ft 13 kts 252°
2026-05-04 01:25 47.44727 -122.30270 406 ft 14 kts 308°
2026-05-04 01:25 47.44788 -122.30378 407 ft 13 kts 310°
2026-05-04 01:25 47.44825 -122.30497 407 ft 14 kts 270°
2026-05-04 01:25 47.44779 -122.30622 404 ft 17 kts 204°
2026-05-04 01:26 47.44651 -122.30631 397 ft 20 kts 180°
2026-05-04 01:26 47.44505 -122.30633 389 ft 23 kts 180°
2026-05-04 01:26 47.44351 -122.30634 392 ft 20 kts 180°
2026-05-04 01:26 47.44214 -122.30635 388 ft 20 kts 180°
2026-05-04 01:27 47.44069 -122.30636 384 ft 22 kts 180°
2026-05-04 01:27 47.43909 -122.30638 380 ft 23 kts 180°
2026-05-04 01:27 47.43760 -122.30639 375 ft 20 kts 180°
2026-05-04 01:27 47.43641 -122.30627 371 ft 18 kts 163°
2026-05-04 01:28 47.43529 -122.30560 369 ft 16 kts 177°
2026-05-04 01:28 47.43430 -122.30561 367 ft 13 kts 180°
2026-05-04 01:28 47.43325 -122.30562 362 ft 16 kts 180°
2026-05-04 01:28 47.43223 -122.30586 363 ft 13 kts 208°
2026-05-04 01:29 47.43165 -122.30678 359 ft 13 kts 238°
2026-05-04 01:29 47.43135 -122.30772 356 ft 7 kts 251°
2026-05-04 01:29 47.43138 -122.30799 357 ft 2 kts 307°
2026-05-04 01:29 47.43149 -122.30805 361 ft 2 kts 352°
2026-05-04 01:30 47.43234 -122.30805 363 ft 40 kts
2026-05-04 01:30 47.43755 -122.30801 373 ft 107 kts
2026-05-04 01:30 47.44697 -122.30792 399 ft 161 kts
2026-05-04 01:30 47.45930 -122.30765 698 ft 185 kts
2026-05-04 01:31 47.47230 -122.30722 1330 ft 193 kts
2026-05-04 01:31 47.48607 -122.30719 2047 ft 197 kts 358°
2026-05-04 01:31 47.50039 -122.30796 2398 ft 219 kts 358°
2026-05-04 01:31 47.51599 -122.30865 2733 ft 228 kts 359°
2026-05-04 01:32 47.53208 -122.30905 3097 ft 234 kts 359°
2026-05-04 01:32 47.54895 -122.30936 3270 ft 253 kts 359°
2026-05-04 01:32 47.56689 -122.30956 3690 ft 262 kts 360°
2026-05-04 01:32 47.58478 -122.30576 4378 ft 260 kts 21°
2026-05-04 01:33 47.59977 -122.29073 4962 ft 266 kts 47°
2026-05-04 01:33 47.60853 -122.26681 5491 ft 272 kts 75°
2026-05-04 01:33 47.60923 -122.23867 6047 ft 279 kts 97°
2026-05-04 01:33 47.60562 -122.21023 6571 ft 283 kts 100°
2026-05-04 01:34 47.60107 -122.18172 7090 ft 286 kts 104°
2026-05-04 01:34 47.59588 -122.15313 7693 ft 287 kts 104°
2026-05-04 01:34 47.59036 -122.12436 8198 ft 291 kts 107°
2026-05-04 01:34 47.58449 -122.09580 8804 ft 290 kts 107°
2026-05-04 01:35 47.57861 -122.06712 9371 ft 293 kts 107°
2026-05-04 01:35 47.57180 -122.03847 9891 ft 295 kts 121°
2026-05-04 01:35 47.55746 -122.01680 10216 ft 303 kts 151°
2026-05-04 01:35 47.53683 -122.00825 10329 ft 318 kts 180°
2026-05-04 01:36 47.51418 -122.00838 10469 ft 334 kts 180°
2026-05-04 01:36 47.49038 -122.00835 10586 ft 350 kts 180°
2026-05-04 01:36 47.46543 -122.00818 10696 ft 365 kts 180°
2026-05-04 01:36 47.43959 -122.00785 10920 ft 375 kts 179°
2026-05-04 01:37 47.41326 -122.00737 11269 ft 382 kts 179°
2026-05-04 01:37 47.38691 -122.00683 11742 ft 383 kts 179°
2026-05-04 01:37 47.36003 -122.00621 12234 ft 387 kts 179°
2026-05-04 01:37 47.33303 -122.00557 12772 ft 387 kts 179°
2026-05-04 01:38 47.30582 -122.00491 13162 ft 394 kts 179°
2026-05-04 01:38 47.27884 -122.00425 13717 ft 394 kts 178°
2026-05-04 01:38 47.25120 -122.00356 14076 ft 400 kts 178°
2026-05-04 01:38 47.22373 -122.00287 14568 ft 401 kts 178°
2026-05-04 01:39 47.19560 -122.00217 15024 ft 404 kts 178°
2026-05-04 01:39 47.16729 -122.00145 15467 ft 407 kts 178°
2026-05-04 01:39 47.13892 -122.00074 15958 ft 410 kts 178°
2026-05-04 01:39 47.11022 -122.00003 16404 ft 413 kts 179°
2026-05-04 01:40 47.08116 -121.99933 16753 ft 418 kts 178°
2026-05-04 01:40 47.05268 -121.99863 17348 ft 417 kts 178°
2026-05-04 01:40 47.02407 -121.99792 17815 ft 418 kts 178°
2026-05-04 01:40 46.99513 -121.99721 18170 ft 423 kts 178°
2026-05-04 01:41 46.96553 -121.99648 18483 ft 428 kts 178°
2026-05-04 01:41 46.93557 -121.99575 18927 ft 428 kts 178°
2026-05-04 01:41 46.90562 -121.99501 19319 ft 430 kts 178°
2026-05-04 01:41 46.87555 -121.99427 19650 ft 434 kts 178°
2026-05-04 01:42 46.84516 -121.99352 20053 ft 436 kts 179°
2026-05-04 01:42 46.81469 -121.99278 20417 ft 439 kts 178°
2026-05-04 01:42 46.78440 -121.99204 20796 ft 441 kts 178°
2026-05-04 01:42 46.75363 -121.99130 21165 ft 443 kts 178°
2026-05-04 01:43 46.72270 -121.99054 21518 ft 445 kts 178°
2026-05-04 01:43 46.69153 -121.98979 21874 ft 448 kts 178°
2026-05-04 01:43 46.66035 -121.98774 22230 ft 450 kts 170°
2026-05-04 01:43 46.63070 -121.97325 22530 ft 448 kts 148°
2026-05-04 01:44 46.60564 -121.94674 22965 ft 444 kts 134°
2026-05-04 01:44 46.58636 -121.91207 23229 ft 444 kts 119°
2026-05-04 01:44 46.57076 -121.87270 23533 ft 446 kts 117°
2026-05-04 01:44 46.55590 -121.83367 23748 ft 449 kts 117°
2026-05-04 01:45 46.54070 -121.79391 24014 ft 451 kts 117°
2026-05-04 01:45 46.52515 -121.75390 24330 ft 452 kts 118°
2026-05-04 01:45 46.49356 -121.67431 24966 ft 456 kts 118°
2026-05-04 01:46 46.47764 -121.63450 25266 ft 457 kts 118°
2026-05-04 01:46 46.46182 -121.59499 25586 ft 458 kts 118°
2026-05-04 01:46 46.44581 -121.55502 25892 ft 459 kts 118°
2026-05-04 01:46 46.42966 -121.51473 26145 ft 462 kts 118°
2026-05-04 01:47 46.41349 -121.47444 26401 ft 464 kts 118°
2026-05-04 01:47 46.39722 -121.43394 26687 ft 465 kts 118°
2026-05-04 01:47 46.38086 -121.39328 26979 ft 467 kts 118°
2026-05-04 01:47 46.36447 -121.35261 27267 ft 468 kts 118°
2026-05-04 01:48 46.34820 -121.31229 27552 ft 469 kts 118°
2026-05-04 01:48 46.33177 -121.27162 27895 ft 468 kts 118°
2026-05-04 01:48 46.31530 -121.23094 28286 ft 467 kts 118°
2026-05-04 01:48 46.29889 -121.19047 28708 ft 465 kts 118°
2026-05-04 01:49 46.28247 -121.15003 29111 ft 463 kts 118°
2026-05-04 01:49 46.27168 -121.12346 29315 ft 463 kts 118°
2026-05-04 01:49 46.25541 -121.08350 29674 ft 463 kts 118°
2026-05-04 01:49 46.23903 -121.04329 30057 ft 461 kts 118°
2026-05-04 01:50 46.22278 -121.00348 30412 ft 459 kts 118°
2026-05-04 01:50 46.20662 -120.96392 30713 ft 458 kts 118°
2026-05-04 01:50 46.19040 -120.92428 30984 ft 457 kts 118°
2026-05-04 01:50 46.17417 -120.88469 31263 ft 457 kts 118°
2026-05-04 01:51 46.15796 -120.84519 31499 ft 457 kts 118°
2026-05-04 01:51 46.14177 -120.80579 31740 ft 457 kts 118°
2026-05-04 01:51 46.12579 -120.76696 31973 ft 457 kts 118°
2026-05-04 01:51 46.10961 -120.72770 32182 ft 457 kts 118°
2026-05-04 01:52 46.09331 -120.68819 32440 ft 457 kts 118°
2026-05-04 01:52 46.07704 -120.64884 32720 ft 455 kts 118°
2026-05-04 01:52 46.06080 -120.60962 32873 ft 456 kts 118°
2026-05-04 01:52 46.04456 -120.57042 32851 ft 458 kts 118°
2026-05-04 01:53 46.01227 -120.49268 32845 ft 456 kts 118°
2026-05-04 01:53 45.97969 -120.41450 32851 ft 453 kts 118°
2026-05-04 01:54 45.94729 -120.33693 32852 ft 451 kts 118°
2026-05-04 01:54 45.91499 -120.25981 32846 ft 449 kts 118°
2026-05-04 01:55 45.88303 -120.18369 32843 ft 449 kts 118°
2026-05-04 01:55 45.85059 -120.10667 32839 ft 451 kts 118°
2026-05-04 01:56 45.81837 -120.03036 32841 ft 453 kts 118°
2026-05-04 01:56 45.78554 -119.95282 32837 ft 454 kts 118°
2026-05-04 01:57 45.75260 -119.87521 32799 ft 457 kts 118°
2026-05-04 01:57 45.71967 -119.79786 32835 ft 457 kts 118°
2026-05-04 01:58 45.68643 -119.72005 32847 ft 458 kts 118°
2026-05-04 01:58 45.65324 -119.64257 32846 ft 458 kts 118°
2026-05-04 01:59 45.62003 -119.56522 32855 ft 457 kts 118°
2026-05-04 01:59 45.58677 -119.48793 32857 ft 455 kts 119°
2026-05-04 02:00 45.55381 -119.41154 32878 ft 453 kts 119°
2026-05-04 02:00 45.52070 -119.33502 32880 ft 452 kts 119°
2026-05-04 02:01 45.48763 -119.25879 32884 ft 451 kts 119°
2026-05-04 02:01 45.45478 -119.18328 32886 ft 450 kts 119°
2026-05-04 02:02 45.42176 -119.10758 32900 ft 449 kts 119°
2026-05-04 02:02 45.38868 -119.03192 32901 ft 450 kts 119°
2026-05-04 02:03 45.35548 -118.95620 32913 ft 451 kts 119°
2026-05-04 02:03 45.32210 -118.88029 32915 ft 452 kts 119°
2026-05-04 02:04 45.28885 -118.80488 32958 ft 453 kts 119°
2026-05-04 02:04 45.25518 -118.72873 32954 ft 454 kts 119°
2026-05-04 02:05 45.22143 -118.65258 32959 ft 455 kts 120°
2026-05-04 02:05 45.18788 -118.57710 32976 ft 454 kts 120°
2026-05-04 02:06 45.15403 -118.50115 32984 ft 454 kts 120°
2026-05-04 02:06 45.12022 -118.42546 32981 ft 454 kts 120°
2026-05-04 02:07 45.08658 -118.35039 32984 ft 453 kts 120°
2026-05-04 02:07 45.05263 -118.27479 32969 ft 454 kts 120°
2026-05-04 02:08 45.01890 -118.19990 32979 ft 453 kts 120°
2026-05-04 02:08 44.98497 -118.12476 32952 ft 453 kts 120°
2026-05-04 02:09 44.95089 -118.04949 32936 ft 453 kts 120°
2026-05-04 02:09 44.91683 -117.97443 32940 ft 453 kts 120°
2026-05-04 02:10 44.88293 -117.89993 32946 ft 453 kts 120°
2026-05-04 02:10 44.84885 -117.82520 32926 ft 452 kts 120°
2026-05-04 02:11 44.81640 -117.74929 32943 ft 450 kts 117°
2026-05-04 02:11 44.78611 -117.67246 32935 ft 450 kts 116°
2026-05-04 02:12 44.75576 -117.59537 32940 ft 449 kts 116°
2026-05-04 02:12 44.72513 -117.51854 32934 ft 449 kts 117°
2026-05-04 02:13 44.69453 -117.44244 32892 ft 449 kts 117°
2026-05-04 02:13 44.66368 -117.36605 32899 ft 449 kts 117°
2026-05-04 02:14 44.63268 -117.28951 32906 ft 449 kts 117°
2026-05-04 02:14 44.60178 -117.21339 32892 ft 450 kts 117°
2026-05-04 02:15 44.57064 -117.13687 32886 ft 451 kts 117°
2026-05-04 02:15 44.53941 -117.06034 32875 ft 452 kts 117°
2026-05-04 02:16 44.50805 -116.98370 32881 ft 452 kts 117°
2026-05-04 02:16 44.47680 -116.90757 32874 ft 452 kts 117°
2026-05-04 02:17 44.44539 -116.83120 32867 ft 452 kts 117°
2026-05-04 02:17 44.41392 -116.75493 32862 ft 452 kts 117°
2026-05-04 02:18 44.38256 -116.67910 32854 ft 451 kts 117°
2026-05-04 02:18 44.35107 -116.60319 32860 ft 451 kts 117°
2026-05-04 02:19 44.31948 -116.52723 32848 ft 450 kts 117°
2026-05-04 02:19 44.28797 -116.45166 32848 ft 449 kts 118°
2026-05-04 02:20 44.25668 -116.37681 32852 ft 448 kts 118°
2026-05-04 02:20 44.22516 -116.30161 32857 ft 448 kts 118°
2026-05-04 02:21 44.19362 -116.22656 32848 ft 448 kts 118°
2026-05-04 02:21 44.16208 -116.15171 32839 ft 447 kts 118°
2026-05-04 02:22 44.13066 -116.07734 32835 ft 447 kts 118°
2026-05-04 02:22 44.09905 -116.00272 32840 ft 447 kts 118°
2026-05-04 02:23 44.06746 -115.92832 32837 ft 449 kts 118°
2026-05-04 02:23 44.03563 -115.85355 32841 ft 450 kts 118°
2026-05-04 02:24 44.00370 -115.77877 32835 ft 451 kts 118°
2026-05-04 02:24 43.97184 -115.70430 32838 ft 452 kts 119°
2026-05-04 02:25 43.93953 -115.62904 32837 ft 453 kts 119°
2026-05-04 02:25 43.90746 -115.55451 32834 ft 455 kts 119°
2026-05-04 02:26 43.87517 -115.47965 32849 ft 455 kts 119°
2026-05-04 02:26 43.84813 -115.41710 32841 ft 456 kts 119°
2026-05-04 02:27 43.81558 -115.34200 32858 ft 456 kts 119°
2026-05-04 02:27 43.77767 -115.25478 32866 ft 456 kts 119°
2026-05-04 02:28 43.75017 -115.19167 32867 ft 456 kts 119°
2026-05-04 02:28 43.71751 -115.11691 32878 ft 455 kts 120°
2026-05-04 02:29 43.68477 -115.04214 32877 ft 455 kts 120°
2026-05-04 02:29 43.65219 -114.96795 32877 ft 455 kts 120°
2026-05-04 02:30 43.61957 -114.89384 32881 ft 456 kts 120°
2026-05-04 02:30 43.58643 -114.81873 32878 ft 456 kts 120°
2026-05-04 02:31 43.55351 -114.74432 32880 ft 458 kts 120°
2026-05-04 02:31 43.52009 -114.66897 32888 ft 460 kts 120°
2026-05-04 02:32 43.48651 -114.59348 32875 ft 462 kts 120°
2026-05-04 02:32 43.45288 -114.51803 32858 ft 464 kts 121°
2026-05-04 02:33 43.41902 -114.44230 32872 ft 465 kts 121°
2026-05-04 02:33 43.38504 -114.36646 32955 ft 466 kts 121°
2026-05-04 02:34 43.35115 -114.29099 32942 ft 466 kts 121°
2026-05-04 02:34 43.31676 -114.21529 32919 ft 466 kts 122°
2026-05-04 02:35 43.28100 -114.14087 32888 ft 466 kts 123°
2026-05-04 02:35 43.24502 -114.06711 32848 ft 466 kts 123°
2026-05-04 02:36 43.20891 -113.99288 32821 ft 466 kts 123°
2026-05-04 02:36 43.17319 -113.91928 32801 ft 466 kts 123°
2026-05-04 02:37 43.13720 -113.84517 32812 ft 466 kts 123°
2026-05-04 02:37 43.10137 -113.77159 32811 ft 466 kts 123°
2026-05-04 02:38 43.06526 -113.69763 32812 ft 467 kts 123°
2026-05-04 02:38 43.02929 -113.62413 32808 ft 467 kts 124°
2026-05-04 02:39 42.99303 -113.55024 32813 ft 467 kts 124°
2026-05-04 02:39 42.95693 -113.47687 32814 ft 468 kts 124°
2026-05-04 02:40 42.92088 -113.40375 32817 ft 469 kts 124°
2026-05-04 02:40 42.88447 -113.33010 32818 ft 470 kts 124°
2026-05-04 02:41 42.84787 -113.25625 32828 ft 470 kts 124°
2026-05-04 02:41 42.81107 -113.18218 32831 ft 471 kts 124°
2026-05-04 02:42 42.77422 -113.10819 32825 ft 471 kts 124°
2026-05-04 02:42 42.73736 -113.03437 32834 ft 471 kts 125°
2026-05-04 02:43 42.70067 -112.96107 32838 ft 471 kts 125°
2026-05-04 02:43 42.66367 -112.88733 32838 ft 472 kts 125°
2026-05-04 02:44 42.62661 -112.81365 32850 ft 471 kts 125°
2026-05-04 02:44 42.58958 -112.74021 32833 ft 471 kts 125°
2026-05-04 02:45 42.55250 -112.66682 32843 ft 470 kts 125°
2026-05-04 02:45 42.51570 -112.59420 32849 ft 469 kts 125°
2026-05-04 02:46 42.47859 -112.52115 32853 ft 469 kts 125°
2026-05-04 02:46 42.44129 -112.44790 32852 ft 469 kts 126°
2026-05-04 02:47 42.40454 -112.37590 32857 ft 469 kts 126°
2026-05-04 02:47 42.36733 -112.30317 32864 ft 470 kts 126°
2026-05-04 02:48 42.33003 -112.23045 32868 ft 469 kts 126°
2026-05-04 02:48 42.29272 -112.15787 32877 ft 470 kts 126°
2026-05-04 02:49 42.25565 -112.08596 32864 ft 471 kts 126°
2026-05-04 02:49 42.21816 -112.01338 32872 ft 471 kts 126°
2026-05-04 02:50 42.18062 -111.94088 32876 ft 471 kts 126°
2026-05-04 02:50 42.14324 -111.86887 32883 ft 471 kts 126°
2026-05-04 02:51 42.10562 -111.79657 32894 ft 471 kts 126°
2026-05-04 02:51 42.06804 -111.72452 32890 ft 470 kts 126°
2026-05-04 02:52 42.03054 -111.65278 32898 ft 470 kts 126°
2026-05-04 02:52 41.99276 -111.58069 32889 ft 470 kts 127°
2026-05-04 02:53 41.95496 -111.50873 32885 ft 470 kts 127°
2026-05-04 02:53 41.91722 -111.43706 32888 ft 469 kts 127°
2026-05-04 02:54 41.87973 -111.36602 32893 ft 468 kts 127°
2026-05-04 02:54 41.84192 -111.29454 32895 ft 467 kts 127°
2026-05-04 02:55 41.78554 -111.18829 32889 ft 466 kts 127°
2026-05-04 02:56 41.74806 -111.11785 32884 ft 466 kts 127°
2026-05-04 02:56 41.71037 -111.04718 32900 ft 465 kts 127°
2026-05-04 02:57 41.67262 -110.97658 32885 ft 466 kts 127°
2026-05-04 02:57 41.63511 -110.90658 32889 ft 466 kts 127°
2026-05-04 02:58 41.59733 -110.83623 32886 ft 465 kts 127°
2026-05-04 02:58 41.55947 -110.76589 32880 ft 466 kts 128°
2026-05-04 02:59 41.52159 -110.69570 32898 ft 466 kts 128°
2026-05-04 02:59 41.48355 -110.62536 32886 ft 466 kts 128°
2026-05-04 02:59 41.46464 -110.59045 33029 ft 466 kts 128°
2026-05-04 03:00 41.44560 -110.55534 33044 ft 466 kts 128°
2026-05-04 03:00 41.40750 -110.48521 33078 ft 467 kts 128°
2026-05-04 03:01 41.36955 -110.41551 33087 ft 467 kts 128°
2026-05-04 03:01 41.33129 -110.34541 33066 ft 468 kts 128°
2026-05-04 03:02 41.29289 -110.27521 33036 ft 468 kts 128°
2026-05-04 03:02 41.25466 -110.20549 32995 ft 468 kts 128°
2026-05-04 03:03 41.22268 -110.14727 32960 ft 469 kts 128°
2026-05-04 03:03 41.17786 -110.06588 32909 ft 469 kts 128°
2026-05-04 03:04 41.14573 -110.00766 32896 ft 469 kts 128°
2026-05-04 03:04 41.10703 -109.93769 32884 ft 470 kts 128°
2026-05-04 03:05 41.06838 -109.86796 32877 ft 470 kts 128°
2026-05-04 03:05 41.02961 -109.79816 32881 ft 470 kts 128°
2026-05-04 03:06 40.99096 -109.72877 32875 ft 470 kts 128°
2026-05-04 03:06 40.95210 -109.65913 32873 ft 471 kts 128°
2026-05-04 03:07 40.91313 -109.58946 32876 ft 471 kts 129°
2026-05-04 03:07 40.87409 -109.51980 32856 ft 471 kts 129°
2026-05-04 03:08 40.83512 -109.45044 32865 ft 470 kts 129°
2026-05-04 03:08 40.79603 -109.38104 32869 ft 471 kts 129°
2026-05-04 03:09 40.75709 -109.31205 32848 ft 471 kts 129°
2026-05-04 03:09 40.71779 -109.24257 32859 ft 471 kts 129°
2026-05-04 03:10 40.67851 -109.17328 32851 ft 472 kts 129°
2026-05-04 03:10 40.63904 -109.10382 32867 ft 473 kts 129°
2026-05-04 03:11 40.59969 -109.03472 32862 ft 474 kts 129°
2026-05-04 03:11 40.56023 -108.96556 32836 ft 474 kts 129°
2026-05-04 03:12 40.52067 -108.89641 32864 ft 474 kts 129°
2026-05-04 03:12 40.48102 -108.82725 32849 ft 475 kts 129°
2026-05-04 03:13 40.44131 -108.75814 32855 ft 475 kts 129°
2026-05-04 03:13 40.40154 -108.68904 32847 ft 475 kts 129°
2026-05-04 03:14 40.36156 -108.61977 32848 ft 475 kts 129°
2026-05-04 03:14 40.32198 -108.55134 32853 ft 475 kts 130°
2026-05-04 03:15 40.28201 -108.48238 32850 ft 475 kts 130°
2026-05-04 03:15 40.24234 -108.41408 32858 ft 475 kts 130°
2026-05-04 03:16 40.20215 -108.34505 32860 ft 476 kts 130°
2026-05-04 03:16 40.16192 -108.27610 32865 ft 476 kts 130°
2026-05-04 03:17 40.12213 -108.20804 32857 ft 477 kts 130°
2026-05-04 03:17 40.08186 -108.13931 32863 ft 478 kts 130°
2026-05-04 03:17 40.06166 -108.10489 32984 ft 478 kts 130°
2026-05-04 03:18 40.04133 -108.07028 33001 ft 479 kts 130°
2026-05-04 03:18 40.00068 -108.00118 33021 ft 480 kts 130°
2026-05-04 03:19 39.95997 -107.93201 33024 ft 481 kts 130°
2026-05-04 03:19 39.91943 -107.86314 32996 ft 482 kts 131°
2026-05-04 03:20 39.87850 -107.79373 32891 ft 482 kts 131°
2026-05-04 03:20 39.83758 -107.72448 32920 ft 482 kts 130°
2026-05-04 03:21 39.79678 -107.65561 32916 ft 483 kts 130°
2026-05-04 03:21 39.75570 -107.58642 32915 ft 484 kts 131°
2026-05-04 03:22 39.71445 -107.51710 32940 ft 484 kts 131°
2026-05-04 03:22 39.67278 -107.44821 32927 ft 485 kts 131°
2026-05-04 03:23 39.63188 -107.37944 32929 ft 485 kts 130°
2026-05-04 03:23 39.59046 -107.30977 32911 ft 486 kts 131°
2026-05-04 03:24 39.54916 -107.24079 32946 ft 487 kts 131°
2026-05-04 03:24 39.50732 -107.17115 32973 ft 489 kts 131°
2026-05-04 03:25 39.46540 -107.10167 32999 ft 489 kts 131°
2026-05-04 03:25 39.42360 -107.03254 33004 ft 491 kts 131°
2026-05-04 03:26 39.38150 -106.96303 32952 ft 492 kts 131°
2026-05-04 03:26 39.33950 -106.89381 32907 ft 491 kts 131°
2026-05-04 03:26 39.31846 -106.85918 33087 ft 491 kts 131°
2026-05-04 03:27 39.29747 -106.82467 33101 ft 491 kts 131°
2026-05-04 03:27 39.25542 -106.75568 33089 ft 490 kts 131°
2026-05-04 03:28 39.21393 -106.68773 33085 ft 489 kts 132°
2026-05-04 03:28 39.17168 -106.61870 33036 ft 490 kts 132°
2026-05-04 03:29 39.12929 -106.54969 33108 ft 490 kts 133°
2026-05-04 03:29 39.08685 -106.48125 33119 ft 491 kts 132°
2026-05-04 03:30 39.04450 -106.41215 33135 ft 491 kts 133°
2026-05-04 03:30 39.00199 -106.34310 33106 ft 494 kts 132°
2026-05-04 03:31 38.95931 -106.27403 33066 ft 496 kts 132°
2026-05-04 03:31 38.91645 -106.20489 33108 ft 497 kts 132°
2026-05-04 03:32 38.87358 -106.13591 33114 ft 498 kts 133°
2026-05-04 03:32 38.83042 -106.06662 33124 ft 500 kts 133°
2026-05-04 03:33 38.78704 -105.99712 33122 ft 502 kts 133°
2026-05-04 03:33 38.74347 -105.92745 32944 ft 503 kts 133°
2026-05-04 03:34 38.69957 -105.85743 32905 ft 504 kts 133°
2026-05-04 03:34 38.65550 -105.78726 32938 ft 504 kts 133°
2026-05-04 03:35 38.61142 -105.71726 32914 ft 506 kts 133°
2026-05-04 03:35 38.56717 -105.64697 32909 ft 507 kts 133°
2026-05-04 03:36 38.52298 -105.57707 32882 ft 507 kts 133°
2026-05-04 03:36 38.47869 -105.50729 32906 ft 507 kts 133°
2026-05-04 03:37 38.43424 -105.43734 32889 ft 509 kts 133°
2026-05-04 03:37 38.38963 -105.36726 32907 ft 509 kts 134°
2026-05-04 03:38 38.34502 -105.29748 32892 ft 510 kts 133°
2026-05-04 03:38 38.30027 -105.22736 32895 ft 509 kts 133°
2026-05-04 03:39 38.25560 -105.15755 32888 ft 509 kts 133°
2026-05-04 03:39 38.21075 -105.08768 32888 ft 511 kts 133°
2026-05-04 03:40 38.16587 -105.01793 32848 ft 513 kts 133°
2026-05-04 03:40 38.12052 -104.94760 32833 ft 513 kts 134°
2026-05-04 03:41 38.08289 -104.88936 32810 ft 513 kts 133°
2026-05-04 03:41 38.03748 -104.81920 32820 ft 513 kts 133°
2026-05-04 03:42 37.99204 -104.74913 32830 ft 514 kts 133°
2026-05-04 03:42 37.94655 -104.67917 32809 ft 515 kts 133°
2026-05-04 03:43 37.90089 -104.60909 32806 ft 515 kts 133°
2026-05-04 03:43 37.85538 -104.53939 32812 ft 516 kts 133°
2026-05-04 03:44 37.80949 -104.46924 32798 ft 517 kts 134°
2026-05-04 03:44 37.76353 -104.39914 32780 ft 517 kts 134°
2026-05-04 03:45 37.71783 -104.32958 32782 ft 517 kts 134°
2026-05-04 03:45 37.67177 -104.25963 32788 ft 517 kts 134°
2026-05-04 03:46 37.62569 -104.18980 32783 ft 518 kts 134°
2026-05-04 03:46 37.57943 -104.11984 32778 ft 518 kts 134°
2026-05-04 03:47 37.53349 -104.05047 32782 ft 519 kts 134°
2026-05-04 03:47 37.48556 -103.98234 32762 ft 514 kts 143°
2026-05-04 03:48 37.43110 -103.92470 32778 ft 511 kts 146°
2026-05-04 03:48 37.37610 -103.86862 32780 ft 512 kts 146°
2026-05-04 03:49 37.32098 -103.81163 32781 ft 512 kts 146°
2026-05-04 03:49 37.26608 -103.75419 32781 ft 514 kts 145°
2026-05-04 03:50 37.21119 -103.69663 32783 ft 514 kts 145°
2026-05-04 03:50 37.15607 -103.63898 32757 ft 515 kts 146°
2026-05-04 03:51 37.10137 -103.58192 32787 ft 515 kts 146°
2026-05-04 03:51 37.04580 -103.52410 32789 ft 515 kts 145°
2026-05-04 03:52 36.99086 -103.46715 32795 ft 516 kts 145°
2026-05-04 03:52 36.93552 -103.40971 32778 ft 516 kts 146°
2026-05-04 03:53 36.88019 -103.35244 32801 ft 516 kts 146°
2026-05-04 03:53 36.82509 -103.29553 32806 ft 516 kts 146°
2026-05-04 03:54 36.76970 -103.23846 32815 ft 516 kts 146°
2026-05-04 03:54 36.71433 -103.18152 32789 ft 516 kts 146°
2026-05-04 03:55 36.65880 -103.12451 32819 ft 516 kts 146°
2026-05-04 03:55 36.60362 -103.06798 32832 ft 516 kts 146°
2026-05-04 03:56 36.54788 -103.01098 32822 ft 517 kts 146°
2026-05-04 03:56 36.49246 -102.95442 32807 ft 517 kts 146°
2026-05-04 03:57 36.43661 -102.89753 32816 ft 519 kts 146°
2026-05-04 03:57 36.38072 -102.84070 32834 ft 519 kts 146°
2026-05-04 03:58 36.29690 -102.75568 32825 ft 521 kts 146°
2026-05-04 03:58 36.24058 -102.69869 32876 ft 522 kts 146°
2026-05-04 03:59 36.18455 -102.64211 32914 ft 523 kts 146°
2026-05-04 03:59 36.12791 -102.58501 32945 ft 524 kts 146°
2026-05-04 04:00 36.07124 -102.52799 32929 ft 524 kts 146°
2026-05-04 04:00 36.01501 -102.47152 32955 ft 524 kts 146°
2026-05-04 04:01 35.95818 -102.41457 32941 ft 525 kts 146°
2026-05-04 04:01 35.90123 -102.35761 32915 ft 526 kts 146°
2026-05-04 04:02 35.84469 -102.30115 32810 ft 526 kts 147°
2026-05-04 04:02 35.78778 -102.24441 32839 ft 525 kts 147°
2026-05-04 04:03 35.73086 -102.18780 32847 ft 524 kts 147°
2026-05-04 04:03 35.67443 -102.13178 32913 ft 524 kts 147°
2026-05-04 04:04 35.61804 -102.07590 32885 ft 523 kts 147°
2026-05-04 04:04 35.56121 -102.01969 32875 ft 523 kts 147°
2026-05-04 04:05 35.50445 -101.96365 32855 ft 522 kts 147°
2026-05-04 04:05 35.44774 -101.90776 32889 ft 522 kts 147°
2026-05-04 04:06 35.39161 -101.85255 32931 ft 521 kts 147°
2026-05-04 04:06 35.33546 -101.79741 32970 ft 521 kts 147°
2026-05-04 04:07 35.27882 -101.74189 32990 ft 521 kts 147°
2026-05-04 04:07 35.22792 -101.67769 32999 ft 531 kts 129°
2026-05-04 04:08 35.19142 -101.59891 32967 ft 535 kts 118°
2026-05-04 04:08 35.15870 -101.51745 32954 ft 534 kts 118°
2026-05-04 04:09 35.12559 -101.43616 32876 ft 534 kts 118°
2026-05-04 04:09 35.09186 -101.35510 32882 ft 534 kts 119°
2026-05-04 04:10 35.05797 -101.27438 32889 ft 534 kts 118°
2026-05-04 04:10 35.02418 -101.19407 32884 ft 534 kts 118°
2026-05-04 04:11 34.99017 -101.11332 32861 ft 535 kts 118°
2026-05-04 04:11 34.95608 -101.03254 32878 ft 534 kts 119°
2026-05-04 04:12 34.92220 -100.95243 32883 ft 535 kts 119°
2026-05-04 04:12 34.88803 -100.87183 32880 ft 535 kts 119°
2026-05-04 04:13 34.85375 -100.79120 32882 ft 535 kts 119°
2026-05-04 04:13 34.81949 -100.71077 32888 ft 534 kts 119°
2026-05-04 04:14 34.78541 -100.63096 32890 ft 534 kts 119°
2026-05-04 04:14 34.75103 -100.55066 32892 ft 533 kts 119°
2026-05-04 04:15 34.71687 -100.47105 32894 ft 533 kts 119°
2026-05-04 04:15 34.68249 -100.39110 32896 ft 533 kts 119°
2026-05-04 04:16 34.64807 -100.31126 32899 ft 533 kts 119°
2026-05-04 04:16 34.61358 -100.23144 32896 ft 533 kts 119°
2026-05-04 04:17 34.57905 -100.15170 32898 ft 534 kts 119°
2026-05-04 04:17 34.54442 -100.07193 32903 ft 533 kts 119°
2026-05-04 04:18 34.51003 -99.99290 32906 ft 533 kts 120°
2026-05-04 04:18 34.47535 -99.91337 32901 ft 533 kts 120°
2026-05-04 04:19 34.44063 -99.83394 32917 ft 533 kts 120°
2026-05-04 04:19 34.40587 -99.75460 32909 ft 533 kts 120°
2026-05-04 04:20 34.37691 -99.68862 32910 ft 533 kts 120°
2026-05-04 04:20 34.34209 -99.60944 32902 ft 532 kts 120°
2026-05-04 04:21 34.30677 -99.53092 32906 ft 531 kts 121°
2026-05-04 04:21 34.26993 -99.45393 32929 ft 531 kts 122°
2026-05-04 04:22 34.23260 -99.37660 32921 ft 531 kts 122°
2026-05-04 04:22 34.19550 -99.29919 32932 ft 531 kts 122°
2026-05-04 04:23 34.15875 -99.22231 32942 ft 532 kts 122°
2026-05-04 04:23 34.12161 -99.14474 32922 ft 532 kts 122°
2026-05-04 04:24 34.08464 -99.06775 32953 ft 532 kts 122°
2026-05-04 04:24 34.06593 -99.02887 32344 ft 541 kts 122°
2026-05-04 04:24 34.04699 -98.98956 31604 ft 542 kts 122°
2026-05-04 04:25 34.02801 -98.95019 30802 ft 539 kts 122°
2026-05-04 04:25 34.00924 -98.91127 30107 ft 530 kts 122°
2026-05-04 04:25 33.99113 -98.87375 29516 ft 522 kts 122°
2026-05-04 04:25 33.97279 -98.83581 28897 ft 517 kts 122°
2026-05-04 04:26 33.95470 -98.79846 28299 ft 513 kts 122°
2026-05-04 04:26 33.93681 -98.76155 27746 ft 508 kts 122°
2026-05-04 04:26 33.91907 -98.72497 27198 ft 503 kts 122°
2026-05-04 04:26 33.90157 -98.68892 26610 ft 492 kts 122°
2026-05-04 04:27 33.88473 -98.65435 26127 ft 478 kts 122°
2026-05-04 04:27 33.86792 -98.62019 25589 ft 467 kts 123°
2026-05-04 04:27 33.85149 -98.58694 25089 ft 459 kts 123°
2026-05-04 04:27 33.83521 -98.55399 24586 ft 456 kts 123°
2026-05-04 04:28 33.81901 -98.52115 24066 ft 454 kts 122°
2026-05-04 04:28 33.80310 -98.48863 23573 ft 451 kts 122°
2026-05-04 04:28 33.78745 -98.45654 22980 ft 448 kts 122°
2026-05-04 04:28 33.77170 -98.42420 22367 ft 444 kts 122°
2026-05-04 04:29 33.75615 -98.39230 21822 ft 436 kts 123°
2026-05-04 04:29 33.74095 -98.36118 21329 ft 429 kts 123°
2026-05-04 04:29 33.72581 -98.33024 20825 ft 426 kts 123°
2026-05-04 04:29 33.71083 -98.29966 20327 ft 423 kts 123°
2026-05-04 04:30 33.69611 -98.26965 19833 ft 420 kts 123°
2026-05-04 04:30 33.68127 -98.23941 19333 ft 417 kts 123°
2026-05-04 04:30 33.66654 -98.20943 18828 ft 414 kts 123°
2026-05-04 04:30 33.65205 -98.17995 18338 ft 412 kts 123°
2026-05-04 04:31 33.63765 -98.15069 17776 ft 410 kts 123°
2026-05-04 04:31 33.62328 -98.12165 17257 ft 407 kts 123°
2026-05-04 04:31 33.60881 -98.09256 16746 ft 403 kts 123°
2026-05-04 04:31 33.59442 -98.06363 16225 ft 392 kts 123°
2026-05-04 04:32 33.58063 -98.03592 15753 ft 381 kts 123°
2026-05-04 04:32 33.56743 -98.00940 15288 ft 371 kts 123°
2026-05-04 04:32 33.55428 -97.98303 14858 ft 366 kts 123°
2026-05-04 04:32 33.54119 -97.95678 14445 ft 364 kts 123°
2026-05-04 04:33 33.52833 -97.93100 14292 ft 353 kts 123°
2026-05-04 04:33 33.51590 -97.90608 14140 ft 344 kts 123°
2026-05-04 04:33 33.50387 -97.88196 13918 ft 337 kts 123°
2026-05-04 04:33 33.49186 -97.85785 13579 ft 335 kts 123°
2026-05-04 04:34 33.47991 -97.83390 13190 ft 333 kts 123°
2026-05-04 04:34 33.46820 -97.81041 12806 ft 332 kts 123°
2026-05-04 04:34 33.45635 -97.78667 12416 ft 331 kts 123°
2026-05-04 04:34 33.44451 -97.76294 12025 ft 330 kts 123°
2026-05-04 04:35 33.43286 -97.73962 11632 ft 329 kts 123°
2026-05-04 04:35 33.42108 -97.71603 11247 ft 328 kts 123°
2026-05-04 04:35 33.40941 -97.69269 10918 ft 326 kts 123°
2026-05-04 04:35 33.39792 -97.66971 10769 ft 317 kts 123°
2026-05-04 04:36 33.38687 -97.64764 10625 ft 308 kts 123°
2026-05-04 04:36 33.37520 -97.62620 10286 ft 306 kts 128°
2026-05-04 04:36 33.36278 -97.60610 10126 ft 298 kts 130°
2026-05-04 04:36 33.35043 -97.58647 10048 ft 287 kts 129°
2026-05-04 04:37 33.31758 -97.53375 9733 ft 243 kts 129°
2026-05-04 04:37 33.30775 -97.51783 9546 ft 233 kts 130°
2026-05-04 04:38 33.30139 -97.50753 9329 ft 231 kts 130°
2026-05-04 04:38 33.28876 -97.48708 8812 ft 230 kts 130°
2026-05-04 04:38 33.27913 -97.47149 8452 ft 229 kts 130°
2026-05-04 04:38 33.27153 -97.45477 8071 ft 234 kts 103°
2026-05-04 04:39 33.27030 -97.43529 7723 ft 234 kts 95°
2026-05-04 04:39 33.26948 -97.41589 7366 ft 234 kts 96°
2026-05-04 04:39 33.26857 -97.39648 7041 ft 232 kts 96°
2026-05-04 04:39 33.26764 -97.37742 6710 ft 232 kts 97°
2026-05-04 04:40 33.26667 -97.35818 6354 ft 232 kts 97°
2026-05-04 04:40 33.26570 -97.33895 6038 ft 229 kts 98°
2026-05-04 04:40 33.26477 -97.32072 5769 ft 226 kts 98°
2026-05-04 04:40 33.26394 -97.30500 5556 ft 225 kts 98°
2026-05-04 04:41 33.26306 -97.28822 5343 ft 225 kts 98°
2026-05-04 04:41 33.26187 -97.26570 5208 ft 221 kts 99°
2026-05-04 04:41 33.26090 -97.24734 5108 ft 222 kts 99°
2026-05-04 04:41 33.25847 -97.22923 4996 ft 218 kts 118°
2026-05-04 04:42 33.25251 -97.21258 4931 ft 218 kts 120°
2026-05-04 04:42 33.24669 -97.19591 4833 ft 219 kts 119°
2026-05-04 04:42 33.24097 -97.17921 4755 ft 217 kts 119°
2026-05-04 04:42 33.23540 -97.16290 4646 ft 204 kts 123°
2026-05-04 04:43 33.22714 -97.15064 4525 ft 184 kts 146°
2026-05-04 04:43 33.21778 -97.14019 4442 ft 187 kts 144°
2026-05-04 04:43 33.20857 -97.12938 4338 ft 184 kts 143°
2026-05-04 04:43 33.19958 -97.11861 4256 ft 180 kts 142°
2026-05-04 04:44 33.19058 -97.10773 4144 ft 178 kts 142°
2026-05-04 04:44 33.18222 -97.09756 4079 ft 178 kts 143°
2026-05-04 04:44 33.17351 -97.08697 4015 ft 181 kts 142°
2026-05-04 04:44 33.16456 -97.07606 3938 ft 184 kts 142°
2026-05-04 04:45 33.15560 -97.06512 3838 ft 183 kts 142°
2026-05-04 04:45 33.14533 -97.05723 3750 ft 171 kts 164°
2026-05-04 04:45 33.13416 -97.05343 3660 ft 164 kts 183°
2026-05-04 04:47 33.06628 -97.05389 3241 ft 155 kts 184°
2026-05-04 04:47 33.05564 -97.05394 3150 ft 151 kts 184°
2026-05-04 04:47 33.04519 -97.05400 3074 ft 150 kts 184°
2026-05-04 04:47 33.03503 -97.05404 2899 ft 141 kts 184°
2026-05-04 04:48 33.02543 -97.05408 2749 ft 138 kts 184°
2026-05-04 04:49 32.98851 -97.05423 2145 ft 129 kts 182°
2026-05-04 04:49 32.97958 -97.05432 1946 ft 125 kts 183°
2026-05-04 04:49 32.97079 -97.05425 1759 ft 129 kts 182°
2026-05-04 04:49 32.96174 -97.05440 1599 ft 133 kts 183°
2026-05-04 04:50 32.95240 -97.05459 1454 ft 136 kts 181°
2026-05-04 04:50 32.94243 -97.05461 1273 ft 149 kts 180°
2026-05-04 04:50 32.93188 -97.05461 1040 ft 152 kts 179°
2026-05-04 04:50 32.92137 -97.05459 763 ft 149 kts 181°
2026-05-04 04:51 32.91144 -97.05470 621 ft 135 kts 179°
2026-05-04 04:51 32.90397 -97.05470 602 ft 76 kts 180°
2026-05-04 04:51 32.90052 -97.05455 602 ft 34 kts 161°
2026-05-04 04:51 32.89926 -97.05391 610 ft 15 kts 151°
2026-05-04 04:52 32.89854 -97.05342 613 ft 11 kts 150°
2026-05-04 04:52 32.89796 -97.05303 603 ft 9 kts 150°
2026-05-04 04:52 32.89769 -97.05287 603 ft 5 kts 156°
2026-05-04 04:52 32.89704 -97.05278 612 ft 12 kts 181°
2026-05-04 04:53 32.89673 -97.05279 609 ft 15 kts 181°
2026-05-04 04:53 32.89507 -97.05279 601 ft 18 kts 181°
2026-05-04 04:53 32.89363 -97.05280 597 ft 23 kts 180°
2026-05-04 04:53 32.89184 -97.05281 595 ft 22 kts 181°
2026-05-04 04:54 32.89047 -97.05282 590 ft 20 kts 180°
2026-05-04 04:54 32.88887 -97.05282 589 ft 25 kts 180°
2026-05-04 04:54 32.88708 -97.05283 589 ft 26 kts 180°
2026-05-04 04:54 32.88566 -97.05284 589 ft 17 kts 179°
2026-05-04 04:55 32.88506 -97.05179 588 ft 21 kts 91°
2026-05-04 04:55 32.88505 -97.04974 589 ft 28 kts 91°
2026-05-04 04:55 32.88502 -97.04711 586 ft 36 kts 90°
2026-05-04 04:55 32.88502 -97.04403 593 ft 36 kts 90°
2026-05-04 04:56 32.88501 -97.04192 600 ft 19 kts 91°
2026-05-04 04:56 32.88501 -97.04043 600 ft 18 kts 90°
2026-05-04 04:56 32.88500 -97.03896 595 ft 17 kts 90°
2026-05-04 04:56 32.88499 -97.03760 588 ft 18 kts 90°
2026-05-04 04:57 32.88499 -97.03625 581 ft 17 kts 90°
2026-05-04 04:57 32.88499 -97.03476 578 ft 17 kts 89°
2026-05-04 04:57 32.88510 -97.03351 578 ft 15 kts 55°
2026-05-04 04:57 32.88607 -97.03322 580 ft 14 kts
2026-05-04 04:58 32.88703 -97.03320 581 ft 14 kts
2026-05-04 04:58 32.88791 -97.03321 582 ft 13 kts 359°
2026-05-04 04:58 32.88881 -97.03321 581 ft 13 kts
2026-05-04 04:58 32.88969 -97.03326 582 ft 12 kts 327°
2026-05-04 04:59 32.88976 -97.03400 583 ft 8 kts 271°
2026-05-04 04:59 32.89018 -97.03434 583 ft 8 kts 356°
2026-05-04 04:59 32.89072 -97.03435 583 ft 8 kts 359°
2026-05-04 04:59 32.89125 -97.03440 583 ft 8 kts 348°
2026-05-04 05:00 32.89174 -97.03460 583 ft 7 kts 338°
2026-05-04 05:00 32.89219 -97.03486 583 ft 7 kts 332°
2026-05-04 05:00 32.89265 -97.03529 583 ft 2 kts 268°
2026-05-04 05:01 32.89257 -97.03542 583 ft 2 kts 229°
2026-05-04 05:01 32.89248 -97.03553 569 ft 2 kts 223°
2026-05-04 05:01 32.89238 -97.03563 583 ft 2 kts 222°
2026-05-04 05:01 32.89232 -97.03569 583 ft 0 kts 223°